Weather in Bolshoy Tsarin

Russia / Republic of Kalmykia     47°51′06″N   45°25′46″E
temp.,
°C
wind,
m/s
gust,
m/s
humid.,
%
clouds,
%
prec.,
mm/h
press.,
hPa
HPBL,
m
16 may, sun
sun1600:00+20se512339 0.0 1015186
03:00+18se46447 0.0 101489
06:00+20ese474669 0.0 1014148
09:00+28se6827100 0.0 1014572
12:00+33se911162 0.0 10133131
15:00+33se1011175 0.0 10123403
18:00+30se712245 0.0 1011402
21:00+23ese513345 0.0 1012234
17 may, mon
mon1700:00+21ese615330 0.0 1012276
03:00+19ese514325 0.0 1011228
06:00+20ese615395 0.0 1011287
09:00+29se9142187 0.0 10111309
12:00+32se11131421 0.0 10113091
15:00+33se1011135 0.0 10103325
18:00+29se6111938 0.0 1009312
21:00+23ese582611 0.0 1011111
18 may, tue
tue1800:00+21e5132553 0.0 1009198
03:00+20e614265 0.0 1008222
06:00+21ese7183346 0.0 1008423
09:00+29se1013210 0.0 10081162
12:00+33se1217130 0.0 10072999
15:00+31se111717100 0.0 10072088
18:00+28ese10162074 0.0 1007861
21:00+24se5122980 0.0 1008327
19 may, wed
wed1900:00+19sse575687 0.1 1008139
03:00+17wsw698732 0.3 1010355
06:00+18w597675 0.0 1011383
09:00+22wnw6750100 0.0 1012935
12:00+24w6746100 0.0 10131564
15:00+25wsw7836100 0.1 10131853
18:00+23sw574011 0.0 10141010
21:00+19w611570 0.0 1015368
20 may, thu
thu2000:00+15w410760 0.0 1017282
03:00+14wnw33770 0.0 101746
06:00+16wsw23660 0.0 1018140
09:00+21wsw33455 0.0 10181077
12:00+24sw2333100 0.0 10171614
15:00+26sse0231100 0.0 10162009
18:00+26e3432100 0.0 1016476
21:00+22e463725 0.0 101581